Theta_e
282 282 282 281 281 281 280 279 279 279 279 278 278 278 278 278 278 278 278 278 278 278 278 278 278 278 279 278 278 278 277 277 277 276 276 277 276 276 276 275 275 275
281 281 282 281 280 281 279 279 279 279 278 278 278 278 278 278 277 278 278 278 278 278 278 278 277 277 277 277 277 277 277 277 276 277 276 276 275 275 275 275 275 275
280 280 280 279 280 279 278 278 278 278 278 277 278 278 278 278 278 277 277 278 277 277 277 277 277 277 277 277 277 277 277 277 276 276 276 275 275 275 274 274 274 274
280 280 280 279 279 279 278 278 278 278 278 278 278 278 279 279 277 277 277 278 277 277 277 276 276 276 276 276 276 276 276 276 276 275 275 275 275 274 274 274 274 274
280 280 279 279 278 278 278 278 278 278 278 278 278 278 278 277 277 277 277 276 276 276 276 276 276 276 276 276 276 275 275 275 275 275 275 274 274 274 274 274 273 273
280 280 280 279 278 278 278 278 278 278 278 278 278 278 277 277 277 276 276 276 276 276 276 275 276 276 276 276 276 276 276 275 275 275 275 274 274 273 274 274 273 273
280 279 279 279 278 278 278 278 278 278 278 278 278 277 277 276 276 276 276 276 276 276 276 275 275 275 275 276 276 275 274 274 274 274 274 273 273 273 273 273 273 273
280 279 279 278 278 278 278 278 278 278 278 277 277 277 277 276 276 276 276 276 276 276 275 275 276 276 275 275 275 274 274 274 274 274 273 273 273 272 272 273 273 272
280 279 279 278 278 278 278 278 278 278 278 277 277 276 276 276 276 276 276 276 275 275 275 275 276 275 276 276 275 274 274 274 275 274 273 272 272 272 272 272 272 271
280 279 278 278 278 278 278 278 278 278 278 277 277 276 276 276 276 276 276 275 275 275 275 275 274 275 275 275 275 275 275 274 274 273 273 273 272 272 272 271 271 270
280 279 278 278 278 278 278 278 278 277 277 277 277 276 276 276 276 275 275 275 275 275 275 275 274 275 275 275 275 275 274 274 274 274 273 272 272 272 273 271 270 270
280 279 279 278 278 278 278 278 278 277 277 277 277 276 276 276 275 275 275 275 275 275 275 275 274 275 275 274 274 274 274 274 273 273 272 271 271 271 271 271 271 271
280 279 279 279 278 278 278 278 278 277 277 277 277 276 276 275 275 275 275 275 275 275 275 275 275 274 274 273 273 273 273 274 273 272 272 271 271 271 271 272 272 271
281 280 280 279 278 278 278 278 278 277 277 277 276 276 276 276 276 275 275 275 274 274 275 275 274 274 273 273 273 273 274 274 273 273 272 271 271 271 272 272 271 270
280 280 279 279 278 277 277 277 277 277 277 276 276 276 277 276 276 276 274 274 274 275 274 274 274 273 273 274 274 274 274 274 273 273 273 272 271 272 272 272 271 270
280 279 278 278 278 277 277 277 277 276 276 276 276 277 276 276 275 275 275 275 274 274 274 274 273 273 275 277 277 275 274 274 273 273 272 272 272 272 272 271 270 269
279 279 279 278 279 278 277 277 277 276 276 276 276 276 275 275 275 275 275 275 274 274 273 273 273 273 277 280 280 279 275 274 273 272 272 272 273 272 271 271 270 270
280 280 279 279 279 278 278 277 276 276 276 276 275 275 274 274 274 275 275 275 274 274 273 273 273 276 279 280 281 281 278 274 274 273 273 273 273 272 272 271 270 269
280 280 279 279 278 278 277 276 276 276 276 275 275 274 274 274 275 275 274 274 274 273 273 273 273 277 280 281 282 282 281 277 273 273 272 272 273 272 272 271 270 270
280 279 279 278 277 277 276 276 276 276 276 275 274 274 274 274 274 274 274 273 273 273 272 272 272 276 280 282 282 282 282 279 272 273 273 273 273 273 272 271 271 270
279 279 278 277 276 276 276 276 276 275 275 275 274 274 274 274 274 274 274 272 271 271 270 270 271 277 280 282 283 283 283 281 272 273 272 272 273 273 272 271 271 270
278 278 278 277 277 276 275 276 275 275 275 274 273 273 272 271 270 269 270 270 270 270 270 270 270 278 280 282 283 283 284 279 272 272 272 272 272 272 271 271 272 271
279 278 277 277 276 275 275 275 275 274 274 273 272 272 272 271 270 270 270 270 270 269 270 270 270 276 280 281 283 284 283 279 274 273 273 272 272 271 271 271 271 271
279 279 278 277 276 276 275 276 275 274 273 272 273 271 271 270 270 269 269 269 270 269 270 270 270 273 279 281 282 284 283 279 276 274 274 273 272 272 272 271 271 272
279 279 278 277 276 276 276 275 275 274 273 271 271 270 270 268 269 269 268 269 269 270 272 271 270 272 278 280 282 283 283 280 277 274 273 273 272 271 272 271 271 271
279 278 278 277 276 276 275 275 274 271 271 271 270 270 269 269 268 269 269 269 269 269 270 271 270 270 273 280 281 283 284 281 278 275 273 273 272 271 270 270 270 269
Wind_Speed
7 7 9 8 7 7 9 9 7 7 6 5 6 6 6 5 3 4 4 4 5 7 6 6 6 6 6 6 6 7 7 8 7 6 7 8 6 8 8 7 6 6
7 6 5 6 6 5 4 6 7 7 7 5 5 6 4 5 3 4 5 6 6 6 5 6 5 5 6 6 6 8 7 7 8 4 8 8 6 7 7 7 7 5
7 6 7 8 8 7 6 5 5 5 5 5 5 5 5 3 5 4 4 6 7 6 6 5 5 4 5 5 5 6 7 7 8 5 7 7 5 6 5 6 5 5
7 7 8 7 6 7 7 7 6 5 5 6 6 5 5 5 5 5 5 5 7 6 5 5 5 4 4 5 6 6 6 6 6 6 7 5 5 6 6 5 6 6
9 7 6 6 6 6 6 7 8 7 7 6 6 5 6 6 6 6 6 5 6 6 5 5 4 4 4 5 5 7 6 7 5 6 7 6 4 5 5 6 7 7
7 8 8 8 7 8 7 7 7 8 7 7 8 6 5 5 6 6 6 7 5 6 6 5 5 4 5 5 5 6 7 7 5 6 7 7 5 3 4 5 7 7
9 8 8 8 8 7 7 7 7 7 7 7 6 6 7 7 7 7 6 6 7 6 6 5 6 6 5 5 6 6 5 6 6 6 7 5 6 5 3 5 6 7
9 8 9 8 9 8 8 7 7 8 7 7 7 6 7 7 7 6 6 6 6 6 5 5 5 6 6 5 6 7 6 5 6 7 6 5 5 5 4 4 6 6
9 9 9 10 10 9 9 9 8 7 7 9 8 7 6 7 8 7 7 6 6 6 6 5 5 6 5 6 6 7 7 6 6 6 7 7 6 6 5 5 6 5
10 9 10 10 11 10 11 9 8 8 7 8 7 7 8 6 6 7 7 7 7 6 6 6 6 6 6 5 6 6 7 7 6 6 6 6 6 6 6 6 6 6
11 11 11 11 11 10 11 10 9 8 7 8 8 8 7 7 6 6 7 7 8 8 7 6 6 7 6 5 5 4 6 6 7 6 6 5 5 5 5 5 5 5
11 11 13 13 12 10 11 11 9 9 9 7 8 9 8 7 9 7 8 8 7 7 6 6 6 6 6 6 6 6 6 6 7 6 6 5 5 4 5 4 5 5
10 11 11 11 10 9 8 8 9 9 9 9 8 9 10 9 8 8 7 7 6 6 7 7 7 7 7 7 7 6 8 9 8 7 6 5 4 5 5 5 5 5
8 8 8 8 6 6 7 7 7 8 8 7 8 9 9 10 10 9 7 6 6 6 6 6 7 7 7 8 7 8 8 6 9 9 7 5 5 4 5 5 5 4
7 6 4 5 7 7 8 8 8 7 7 7 8 8 7 8 7 8 8 7 6 7 7 6 7 8 9 8 9 7 6 6 5 9 7 7 6 6 4 6 4 4
7 6 6 6 8 9 9 8 8 8 8 8 8 8 7 7 7 7 8 9 9 8 7 7 6 6 9 14 12 8 8 6 5 7 7 7 7 5 5 5 5 4
7 7 7 9 9 8 7 8 8 8 8 8 7 7 8 7 8 9 8 8 9 9 9 8 7 6 13 15 15 14 8 7 8 7 6 6 6 9 9 6 6 4
8 9 9 9 8 9 9 8 7 7 8 7 7 7 7 7 8 9 8 8 8 8 9 8 8 10 16 16 16 16 12 7 6 7 7 7 7 8 5 5 8 6
9 10 10 9 8 8 7 7 8 8 8 7 8 6 6 8 10 9 9 8 8 10 9 8 8 13 17 17 17 16 16 11 5 7 7 8 7 9 8 6 7 7
10 9 9 8 7 7 7 8 8 9 7 6 6 6 8 7 7 10 9 9 10 9 8 7 8 12 17 18 17 17 16 12 6 7 7 7 8 9 8 8 7 8
9 9 9 8 8 8 8 8 9 7 8 8 8 9 10 10 10 10 9 7 7 6 7 8 8 14 17 18 17 17 17 12 7 6 6 6 6 7 7 7 8 6
9 9 8 8 8 8 9 10 10 10 10 8 7 6 5 4 4 4 6 8 8 8 8 9 7 15 17 18 18 17 18 8 6 7 6 6 7 7 6 7 8 8
10 10 9 9 9 10 11 11 10 9 7 6 7 7 7 7 8 8 7 8 8 8 9 8 7 13 18 18 18 19 15 7 7 7 6 7 8 7 6 7 7 9
10 10 11 10 10 12 12 10 7 5 7 7 10 10 9 9 7 6 6 6 8 9 10 9 8 11 18 18 19 20 16 9 8 8 8 7 7 6 6 6 8 12
10 10 10 11 11 11 10 10 10 10 7 6 6 5 6 5 5 6 6 6 7 8 7 10 8 10 18 19 20 20 16 10 8 8 9 9 8 7 6 7 6 10
9 10 10 10 11 9 8 9 6 5 6 8 6 6 6 6 6 7 8 8 7 7 8 9 9 9 11 20 20 21 22 12 8 9 11 10 8 7 7 6 7 7
Wind_Direction
165 168 162 164 167 165 158 155 158 153 152 148 145 146 143 139 129 117 115 111 106 101 102 102 103 104 102 100 101 99 97 103 101 107 107 108 107 112 108 107 100 111
171 164 158 149 148 150 150 148 150 152 150 144 135 129 123 127 124 123 129 113 98 100 99 98 98 106 110 108 109 107 105 107 105 106 110 105 110 107 111 116 116 123
161 160 162 163 163 157 150 137 132 131 134 131 124 128 132 130 126 118 120 116 110 105 96 94 97 96 107 112 111 109 116 116 112 112 104 110 114 112 116 119 116 117
168 167 163 160 156 156 146 137 131 125 122 131 148 148 139 134 128 125 114 111 111 105 104 102 110 115 119 121 115 105 111 108 119 119 109 101 112 124 131 129 122 109
166 162 159 149 141 141 144 147 148 149 151 149 137 143 140 141 135 128 120 112 115 116 118 121 121 129 129 120 120 119 118 123 126 121 120 121 134 133 141 131 121 110
166 163 156 152 152 151 155 158 158 155 151 155 163 149 146 140 138 136 133 127 126 128 128 132 137 138 135 128 123 128 136 133 138 127 124 129 133 138 141 130 119 114
169 162 158 152 150 160 158 161 158 158 165 158 141 155 150 149 148 144 139 137 136 140 141 151 153 147 146 139 132 132 134 135 135 136 130 136 135 130 129 121 116 117
168 161 155 154 156 160 164 163 165 168 162 152 161 158 156 152 151 146 140 141 142 144 148 157 160 151 146 143 141 139 143 144 144 142 139 139 138 136 130 124 123 126
162 163 159 162 162 168 170 170 170 168 162 162 160 157 158 157 153 148 146 145 146 151 159 165 161 153 153 151 157 156 154 153 154 154 151 149 148 152 146 136 131 138
170 163 166 169 173 176 175 174 170 168 164 162 159 155 154 154 149 148 147 153 156 163 169 165 156 156 155 162 167 163 155 153 155 158 153 153 155 157 153 148 150 147
172 169 174 180 180 176 178 171 171 165 165 163 156 158 157 149 149 149 155 161 169 173 171 166 166 158 157 162 165 158 153 151 157 154 152 154 157 158 156 153 160 164
176 176 183 184 182 179 177 172 167 166 165 165 164 159 157 162 157 165 170 172 170 171 169 165 160 161 161 165 162 152 151 150 142 154 153 150 155 157 155 163 165 164
183 186 185 184 182 177 167 167 169 169 167 169 171 163 164 166 170 166 172 166 165 164 171 167 162 162 161 149 156 162 152 154 146 149 152 149 155 158 159 160 155 159
190 190 190 183 169 161 167 169 167 169 174 169 164 170 173 173 169 170 164 161 166 169 170 165 164 163 162 151 158 157 154 156 160 151 149 152 151 157 148 153 166 167
180 182 173 162 161 164 166 171 172 173 171 170 176 175 175 171 161 158 158 163 167 170 166 170 174 177 158 167 156 171 174 167 167 161 163 162 164 154 163 161 171 174
171 164 166 166 171 176 176 170 169 172 173 177 183 179 168 163 159 164 170 172 169 172 174 174 184 176 183 181 180 174 175 174 168 176 172 173 169 161 171 175 180 179
164 167 166 182 183 175 169 167 172 171 176 183 182 177 171 164 164 172 179 177 180 178 177 182 182 184 186 191 189 184 175 179 181 181 179 178 169 171 175 175 172 183
170 168 178 185 176 179 173 172 166 171 181 184 179 175 175 164 173 184 180 181 182 182 186 186 185 188 192 194 194 192 186 184 179 180 183 191 189 194 176 175 173 185
172 177 182 179 182 174 170 166 173 180 183 179 185 180 161 179 189 180 188 184 183 185 190 189 190 193 196 196 196 196 194 185 186 186 187 191 191 201 193 182 164 186
177 176 179 180 172 168 166 174 179 189 184 179 168 168 184 190 190 190 187 190 190 190 188 187 194 198 198 198 198 199 199 188 187 194 197 196 196 200 200 199 192 181
176 173 176 171 169 168 171 180 186 183 182 184 180 186 188 194 194 193 196 187 186 185 186 196 201 199 200 201 199 201 203 190 179 200 199 202 201 209 203 192 197 187
171 172 174 169 167 169 176 188 190 190 190 183 180 188 194 181 205 193 189 192 194 188 190 204 203 201 204 203 201 203 204 186 180 199 203 203 207 208 197 198 200 195
175 173 174 172 172 177 190 193 190 193 190 166 178 188 190 194 201 198 198 194 192 193 198 206 200 205 205 206 204 204 202 189 184 197 207 208 214 201 200 199 201 200
176 174 175 178 177 189 194 195 191 184 184 177 186 189 197 203 194 196 203 199 198 203 202 203 207 205 207 209 207 205 203 196 191 196 209 213 218 208 198 209 210 203
177 177 180 179 186 194 188 187 190 192 180 167 190 185 201 169 179 195 209 212 212 211 202 207 213 209 210 211 209 208 207 204 194 194 208 217 211 215 209 208 221 218
176 178 180 181 189 188 185 194 178 151 162 178 191 185 184 183 190 199 208 217 208 211 215 214 215 216 212 215 212 210 210 206 198 198 215 215 209 208 207 214 211 223